Retour au catalogue

BREEZE-M DEB

TANK

ActifHEO
NORAD 39174·DEBRIS·🇷🇺 Russia

Lancé Jun 3, 2013 depuis Baikonur Cosmodrome

Loading…

Prochains Passages (prochaines 24 heures)

TLE

FraisSource: Space-Track

Époque: Sep 14, 2026, 12:43 UTC

1 39174U 13026C   26257.53020939  .00001950  00000-0  61763-3 0  9990
2 39174  50.7611 311.4687 5136966 211.5479 103.6081  5.34684524255687

Suivez BREEZE-M DEB en temps réel avec AllMySat

Download on the App Store